Weather History for Smyrna, TN

Change the Weather History Date:

Thursday, December 27, 2012

  Actual Average Record
Temperature  
Mean Temperature 34 °F -  
Max Temperature 36 °F 44 °F 70 °F (2008)
Min Temperature 32 °F 31 °F 17 °F (2010)
Degree Days  
Heating Degree Days 31    
Moisture  
Dew Point 28 °F    
Average Humidity 79    
Maximum Humidity 82    
Minimum Humidity 73    
Precipitation  
Precipitation 0.00 in - - ()
Sea Level Pressure  
Sea Level Pressure 30.16 in    
Wind  
Wind Speed 6 mph (NNW)    
Max Wind Speed 12 mph    
Max Gust Speed -    
Visibility 10 miles    
Events      
Averages and records for this station are not official NWS values.
T = Trace of Precipitation, MM = Missing Value Source: NWS Daily Summary

Daily Weather History Graph

Daily Weather History Graph

Search for Another Location

Airport:

Trip Planner

Search our weather history database for the weather conditions in past years. The results will help you decide how hot, cold, wet, or windy it might be!

Date:

Astronomy

Dec. 27, 2012 Rise Set
Actual Time 6:55 AM CST 4:39 PM CST
Civil Twilight 6:27 AM CST 5:07 PM CST
Nautical Twilight 5:54 AM CST 5:40 PM CST
Astronomical Twilight 5:23 AM CST 6:11 PM CST
Moon 4:21 PM CST (12/27) 6:07 AM CST (12/27)
Length of Visible Light 10h 40m
Length of Day
9h 43m
Full, 100% of the Moon is Illuminated
Dec 27
Full
Dec 28
Full
Jan 4
Last Quarter
Jan 11
New
Jan 18
First Quarter

Hourly Weather History & Observations

Time (CST) Temp. Windchill Dew Point Humidity Pressure Visibility Wind Dir Wind Speed Gust Speed Precip Events Conditions
12:17 AM 33.8 °F 25.8 °F 28.4 °F 81% 30.11 in 10.0 mi NW 10.4 mph - N/A   Mostly Cloudy
12:56 AM 34.0 °F 27.2 °F 29.1 °F 82% 30.12 in 10.0 mi NW 8.1 mph - N/A   Mostly Cloudy
1:27 AM 33.8 °F 27.0 °F 28.4 °F 81% 30.13 in 10.0 mi NW 8.1 mph - N/A   Overcast
1:56 AM 34.0 °F 26.0 °F 29.1 °F 82% 30.14 in 10.0 mi NW 10.4 mph - N/A   Overcast
2:29 AM 33.8 °F 27.0 °F 28.4 °F 81% 30.14 in 10.0 mi NNW 8.1 mph - N/A   Overcast
2:56 AM 34.0 °F 25.5 °F 28.0 °F 79% 30.15 in 10.0 mi WNW 11.5 mph - N/A   Overcast
3:56 AM 32.9 °F 25.3 °F 28.0 °F 82% 30.15 in 10.0 mi NW 9.2 mph - N/A   Overcast
4:56 AM 32.9 °F 27.5 °F 28.0 °F 82% 30.15 in 10.0 mi NW 5.8 mph - N/A   Overcast
6:56 AM 32.9 °F - 28.0 °F 82% 30.17 in 10.0 mi Calm Calm - N/A   Overcast
7:56 AM 34.0 °F 28.8 °F 29.1 °F 82% 30.19 in 10.0 mi North 5.8 mph - N/A   Overcast
8:56 AM 34.0 °F 28.8 °F 29.1 °F 82% 30.20 in 10.0 mi NNE 5.8 mph - N/A   Overcast
9:56 AM 34.9 °F 28.3 °F 27.1 °F 73% 30.22 in 10.0 mi North 8.1 mph - N/A   Overcast
10:56 AM 34.9 °F 30.8 °F 28.0 °F 76% 30.20 in 10.0 mi ENE 4.6 mph - N/A   Overcast
11:56 AM 34.9 °F - 28.0 °F 76% 30.18 in 10.0 mi Calm Calm - N/A   Overcast
2:56 PM 36.0 °F - 28.0 °F 73% 30.17 in 10.0 mi Calm Calm - N/A   Overcast
3:56 PM 34.9 °F - 28.0 °F 76% 30.17 in 10.0 mi Calm Calm - N/A   Overcast
4:56 PM 34.9 °F - 28.0 °F 76% 30.16 in 10.0 mi Calm Calm - N/A   Overcast
5:56 PM 34.9 °F - 29.1 °F 79% 30.15 in 10.0 mi Calm Calm - N/A   Overcast
6:56 PM 34.9 °F - 29.1 °F 79% 30.16 in 10.0 mi Calm Calm - N/A   Overcast
8:56 PM 34.9 °F - 28.0 °F 76% 30.15 in 10.0 mi Calm Calm - N/A   Overcast
9:56 PM 34.9 °F 32.0 °F 28.0 °F 76% 30.15 in 10.0 mi ESE 3.5 mph - N/A   Overcast
10:56 PM 34.9 °F - 28.0 °F 76% 30.15 in 10.0 mi Calm Calm - N/A   Overcast
11:56 PM 34.9 °F - 29.1 °F 79% 30.13 in 10.0 mi Calm Calm - N/A   Overcast